Location: Newark
(34.4697°S, 57.8467°W)
Time: 22:51:50
(UTC+00:00)

N. Korean satellite - Pass Details

Date: 24 July 2019
Orbit: 457 x 507 km, 97.2° (Epoch: 18 August)

Event Time Altitude Azimuth Distance (km) Brightness Sun altitude
Rises 22:29:44 0° 185° (S) 2,522 10.1 -17.4°
Reaches altitude 10° 22:32:07 10° 200° (SSW) 1,633 9.3 -17.9°
Maximum altitude 22:34:51 22° 252° (WSW) 1,074 9.0 -18.4°
Drops below altitude 10° 22:37:33 10° 304° (WNW) 1,610 10.2 -19.0°
Sets 22:39:53 0° 319° (NW) 2,475 11.0 -19.4°
